Regional Weather Roundup
Issued by NWS

Home | Current Version | Previous Version | Graphics & Text | Print | Product List | Glossary On
Versions: 1 2 3 4 5 6 7 8 9 10 11 12 13 14 15 16 17 18 19 20 21 22 23 24 25 26 27 28 29 30 31 32 33 34 35 36 37 38 39 40 41 42 43 44 45 46 47 48 49 50
000
ASUS45 KCYS 290510
RWRWY

WYOMING REGIONAL WEATHER ROUNDUP
NATIONAL WEATHER SERVICE CHEYENNE WY
1100 PM MDT TUE JUL 28 2015

NOTE:  "FAIR" INDICATES FEW OR NO CLOUDS BELOW 12,000 FEET
WITH NO SIGNIFICANT WEATHER AND/OR OBSTRUCTIONS TO VISIBILITY.

WYZ001-290600-
YELLOWSTONE NATIONAL PARK

CITY           SKY/WX    TMP DP  RH WIND       PRES   REMARKS
LK YELLOWSTONE   N/A     34  31  88 CALM      30.47R
W YELLOWSTONE  NOT AVBL

$$
WYZ002>013-054>058-071-098>099-290600-
NORTHERN WYOMING

CITY           SKY/WX    TMP DP  RH WIND       PRES   REMARKS
JACKSON        FAIR      46  36  66 NE6       30.40R
CODY           FAIR      59  30  33 W6        30.29S
GREYBULL       FAIR      65  32  29 W3        30.23R
WORLAND        FAIR      57  33  40 CALM      30.25R
SHERIDAN       FAIR      53  39  59 CALM      30.23R
BUFFALO        FAIR      52  36  54 W9        30.29R
GILLETTE       FAIR      52  35  52 W10       30.23S
HULETT         FAIR      52  37  58 S8        30.23S
NEWCASTLE      FAIR      59  32  36 N14       30.22F

$$
WYZ014>020-022>026-101>103-290600-
CENTRAL WYOMING

CITY           SKY/WX    TMP DP  RH WIND       PRES   REMARKS
BIG PINEY      FAIR      47  28  47 N13       30.41R
PINEDALE       FAIR      43  32  65 NW8       30.42R
DUBOIS         FAIR      45  28  53 NW9       30.41R
LANDER         FAIR      58  29  33 W7        30.32R
RIVERTON       FAIR      60  28  29 N8        30.31R
CASPER         FAIR      49  28  44 CALM      30.30R
DOUGLAS        FAIR      50  26  39 SE6       30.29R

$$
WYZ021-027>030-104>119-290600-
SOUTHERN WYOMING

CITY           SKY/WX    TMP DP  RH WIND       PRES   REMARKS
EVANSTON       FAIR      53  28  38 N10       30.40R
KEMMERER       FAIR      46  28  49 N12       30.40S
FORT BRIDGER   CLEAR     54  23  30 NW7       30.42R
ROCK SPRINGS   FAIR      56  14  19 E5        30.36R
DIXON          FAIR      55  24  30 E9        30.36R
RAWLINS        FAIR      48  15  26 N6        30.35R
SARATOGA       FAIR      48  19  32 CALM      30.38R
LARAMIE        FAIR      58  17  20 NE5       30.39R
CHEYENNE       CLOUDY    65  31  28 E3        30.34R
TORRINGTON     FAIR      57  36  45 NE13      30.23R
PINE BLUFFS    MOCLDY    61  32  33 N5        30.28R

$$



USA.gov is the U.S. government's official web portal to all federal, state and local government web resources and services.